Regional Weather Roundup
Issued by NWS

Home | Current Version | Previous Version | Graphics & Text | Print | Product List | Glossary On
Versions: 1 2 3 4 5 6 7 8 9 10 11 12 13 14 15 16 17 18 19 20 21 22 23 24 25 26 27 28 29 30 31 32 33 34 35 36 37 38 39 40 41 42 43 44 45 46 47 48 49 50
000
ASUS43 KOAX 260410
RWRNE

WEATHER ROUNDUP FOR NEBRASKA
NATIONAL WEATHER SERVICE OMAHA NE
1100 PM CDT SUN SEP 25 2016

NOTES: SATELLITE DATA IS BEING USED TO AUGMENT CLOUD COVER ABOVE
       12000 FEET.
       "FAIR" INDICATES FEW OR NO CLOUDS BELOW 12,000 FEET WITH NO
       SIGNIFICANT WEATHER AND/OR OBSTRUCTIONS TO VISIBILITY.

  * THESE STATIONS DO NOT REPORT WEATHER SUCH AS RAIN...SNOW OR FOG.

NEZ001>004-019>022-054>056-260500-
NEBRASKA PANHANDLE

CITY           SKY/WX    TMP DP  RH WIND       PRES   REMARKS
SCOTTSBLUFF    CLEAR     47  37  68 CALM      30.39R
ALLIANCE       CLEAR     37  31  78 SW6       30.37S WCI  32
CHADRON        CLEAR     43  35  73 CALM      30.35S
KIMBALL        CLEAR     45  38  77 CALM      30.44R
SIDNEY         CLEAR     40  34  79 SW8       30.42R WCI  34
$$

NEZ057>060-069>072-079>082-260500-
SOUTHWEST NEBRASKA

CITY           SKY/WX    TMP DP  RH WIND       PRES   REMARKS
NORTH PLATTE   CLEAR     43  31  62 CALM      30.36R
IMPERIAL       CLEAR     50  33  52 W5        30.38R
LEXINGTON      CLEAR     45  31  58 CALM      30.34S
MCCOOK         CLEAR     47  29  49 NW3       30.35S
OGALLALA       CLEAR     50  33  51 N9        30.37S
$$

NEZ005>010-023>029-035>040-094-260500-
NORTH CENTRAL NEBRASKA

CITY           SKY/WX    TMP DP  RH WIND       PRES   REMARKS
VALENTINE      CLEAR     44  29  55 W8        30.31S
AINSWORTH      CLEAR     47  33  56 W7        30.31S
BROKEN BOW     CLEAR     44  28  53 N3        30.32S
O`NEILL        CLEAR     49  32  52 W6        30.28S
ORD            CLEAR     43  33  68 NW6       30.29S
THEDFORD       CLEAR     45  31  58 W5        30.35S
$$

NEZ041-046>049-061>064-073>077-083>087-260500-
SOUTH CENTRAL NEBRASKA

CITY           SKY/WX    TMP DP  RH WIND       PRES   REMARKS
GRAND ISLAND   CLEAR     47  37  68 NW8       30.30S
AURORA         CLEAR     48  40  74 NW8       30.28S
HASTINGS       CLEAR     49  36  61 NW8       30.31R
HEBRON         CLEAR     52  38  60 NW5       30.27S
HOLDREGE       CLEAR     47  31  52 NW6       30.33S
KEARNEY *      CLEAR     48  30  49 NW8       30.32S
YORK           CLEAR     48  39  71 NW7       30.27S
$$

NEZ011>018-030>034-042>045-260500-
NORTHEAST NEBRASKA

CITY           SKY/WX    TMP DP  RH WIND       PRES   REMARKS
NORFOLK        CLEAR     49  36  61 W8        30.25R
ALBION         CLEAR     44  37  77 CALM      30.28R
BLAIR          CLEAR     56  40  53 NW8       30.22R
FREMONT        CLEAR     48  41  75 W6        30.23S
TEKAMAH        CLEAR     54  40  59 W9        30.21R
WAYNE          CLEAR     50  39  64 NW6       30.24R
$$

NEZ050>053-065>068-078-088>093-260500-
SOUTHEAST NEBRASKA

CITY           SKY/WX    TMP DP  RH WIND       PRES   REMARKS
LINCOLN        CLEAR     50  42  74 N6        30.26R
OMAHA EPPLEY   CLEAR     57  40  52 NW10      30.21R
BEATRICE       CLEAR     50  43  76 NW8       30.25S
FALLS CITY     CLEAR     55  50  83 NW7       30.21R
NEBRASKA CITY  CLEAR     56  33  42 NW8       30.22S
PLATTSMOUTH    CLEAR     54  40  58 W6        30.22R
$$

NEZ044-045-051>053-067-260500-
OMAHA AREA

CITY           SKY/WX    TMP DP  RH WIND       PRES   REMARKS
OMAHA EPPLEY   CLEAR     57  40  52 NW10      30.21R
BLAIR          CLEAR     56  40  53 NW8       30.22R
FREMONT        CLEAR     48  41  75 W6        30.23S
MILLARD        CLEAR     58  42  54 NW5       30.22R
OFFUTT AFB     CLEAR     54  43  65 NW8       30.21R
PLATTSMOUTH    CLEAR     54  40  58 W6        30.22R
WAHOO          FAIR      54  41  62 W5        30.24S
$$




USA.gov is the U.S. government's official web portal to all federal, state and local government web resources and services.